Stations météo

Publicité
Edinburgh/Royal Botanic Garden , Grande-Bretagne (99180): Température de l'air & dewpoint: 05.12.2019 11:00:00 - 11.12.2019 11:00:00 (GMT)Edinburgh/Royal Botanic Garden , Grande-Bretagne (99180): Température de l'air -20cm & Température de l'air -100cm: 05.12.2019 11:00:00 - 11.12.2019 11:00:00 (GMT)Edinburgh/Royal Botanic Garden , Grande-Bretagne (99180): Quantités de précipitations: 05.12.2019 11:00:00 - 11.12.2019 11:00:00 (GMT)
Date & Time tt [°C] td [°C] tt -20cm [°C] tt -100cm [°C] rr [mm]
11.12.2019 11:00:00 - - - - -
11.12.2019 10:00:00 4,9 0,5 - - 0,0
11.12.2019 09:00:00 4,3 0,4 5,5 7,2 0,0
11.12.2019 08:00:00 4,7 0,8 - - 0,0
11.12.2019 07:00:00 4,8 0,8 - - 0,0
11.12.2019 06:00:00 4,6 0,5 - - 0,0
11.12.2019 05:00:00 4,6 1,2 - - 0,0
11.12.2019 04:00:00 4,4 1,9 - - 0,4
11.12.2019 03:00:00 4,7 2,1 - - 0,2
11.12.2019 02:00:00 4,0 1,4 - - 0,0
11.12.2019 01:00:00 3,8 1,9 - - 0,0
11.12.2019 00:00:00 4,0 2,5 - - 0,6
10.12.2019 23:00:00 4,9 2,0 - - 0,0
10.12.2019 22:00:00 5,3 2,4 - - 0,0
10.12.2019 21:00:00 5,0 2,8 - - 0,2
10.12.2019 20:00:00 5,2 2,8 - - 0,2
10.12.2019 19:00:00 5,7 2,9 - - 0,0
10.12.2019 18:00:00 5,9 4,4 - - 0,6
10.12.2019 17:00:00 6,8 5,0 - - 0,8
10.12.2019 16:00:00 8,4 6,2 - - 1,2
10.12.2019 15:00:00 12,5 10,4 - - 0,4
10.12.2019 14:00:00 13,1 9,3 - - 0,2
10.12.2019 13:00:00 12,5 9,3 - - 0,2
10.12.2019 12:00:00 11,7 8,5 - - 0,2
10.12.2019 11:00:00 10,6 7,5 - - 0,2
10.12.2019 10:00:00 9,6 7,1 - - 0,6
10.12.2019 09:00:00 9,2 6,3 5,2 7,4 0,2
10.12.2019 08:00:00 9,4 5,1 - - 0,0
10.12.2019 07:00:00 9,5 4,6 - - 0,0
10.12.2019 06:00:00 8,6 5,4 - - 0,2
10.12.2019 05:00:00 8,5 4,7 - - 0,0
10.12.2019 04:00:00 8,4 4,4 - - 0,0
10.12.2019 03:00:00 7,8 3,6 - - 0,0
10.12.2019 02:00:00 7,1 3,0 - - 0,0
10.12.2019 01:00:00 5,7 2,2 - - 0,0
10.12.2019 00:00:00 5,6 1,9 - - 0,0
09.12.2019 23:00:00 5,1 1,5 - - 0,0
09.12.2019 22:00:00 3,9 1,6 - - 0,0
09.12.2019 21:00:00 2,8 0,3 - - 0,0
09.12.2019 20:00:00 3,0 0,8 - - 0,0
09.12.2019 19:00:00 2,8 0,7 - - 0,0
09.12.2019 18:00:00 1,7 0,0 - - 0,0
09.12.2019 17:00:00 2,5 -0,5 - - 0,0
09.12.2019 16:00:00 4,0 -0,5 - - 0,0
09.12.2019 15:00:00 4,7 -0,1 - - 0,0
09.12.2019 14:00:00 5,9 -0,3 - - 0,0
09.12.2019 13:00:00 6,0 -0,3 - - 0,0
09.12.2019 12:00:00 5,2 1,0 - - 0,0
09.12.2019 11:00:00 4,6 -0,8 - - 0,0
09.12.2019 10:00:00 3,3 0,0 - - 0,0
09.12.2019 09:00:00 4,2 -1,0 6,0 7,2 0,0
09.12.2019 08:00:00 4,8 -0,4 - - 0,0
09.12.2019 07:00:00 4,4 1,0 - - 0,0
09.12.2019 06:00:00 5,8 0,4 - - 0,0
09.12.2019 05:00:00 5,7 0,9 - - 0,0
09.12.2019 04:00:00 6,4 1,5 - - 0,0
09.12.2019 03:00:00 6,5 2,0 - - 0,0
09.12.2019 02:00:00 6,1 2,5 - - 0,0
09.12.2019 01:00:00 4,3 3,2 - - 0,0
09.12.2019 00:00:00 4,2 3,2 - - 0,0
08.12.2019 23:00:00 5,0 3,6 - - 0,0
08.12.2019 22:00:00 4,6 3,5 - - 0,0
08.12.2019 21:00:00 4,8 3,9 - - 1,2
08.12.2019 20:00:00 5,4 4,4 - - 1,4
08.12.2019 19:00:00 4,3 2,8 - - 0,0
08.12.2019 18:00:00 4,9 3,7 - - 0,6
08.12.2019 17:00:00 5,2 3,4 - - 0,8
08.12.2019 16:00:00 5,9 3,4 - - 0,0
08.12.2019 15:00:00 5,8 3,7 - - 0,2
08.12.2019 14:00:00 5,8 3,6 - - 0,4
08.12.2019 13:00:00 5,6 4,1 - - 2,2
08.12.2019 12:00:00 5,9 3,8 - - 1,0
08.12.2019 11:00:00 6,4 3,6 - - 0,0
08.12.2019 10:00:00 5,8 4,1 - - 0,8
08.12.2019 09:00:00 4,9 3,1 6,2 7,2 0,4
08.12.2019 08:00:00 5,9 4,3 - - 0,6
08.12.2019 07:00:00 5,7 3,9 - - 0,4
08.12.2019 06:00:00 5,8 3,7 - - 0,8
08.12.2019 05:00:00 6,7 3,7 - - 0,0
08.12.2019 04:00:00 7,2 3,9 - - 0,4
08.12.2019 03:00:00 8,4 6,3 - - 0,4
08.12.2019 02:00:00 8,9 6,3 - - 0,2
08.12.2019 01:00:00 11,0 9,7 - - 0,2
08.12.2019 00:00:00 10,6 8,9 - - 0,4
07.12.2019 23:00:00 10,3 8,8 - - 2,2
07.12.2019 22:00:00 10,7 8,6 - - 0,8
07.12.2019 21:00:00 11,5 8,7 - - 0,2
07.12.2019 20:00:00 11,6 8,7 - - 0,0
07.12.2019 19:00:00 11,1 8,7 - - 0,0
07.12.2019 18:00:00 10,6 8,8 - - 0,4
07.12.2019 17:00:00 10,3 8,7 - - 0,4
07.12.2019 16:00:00 10,2 8,4 - - 0,2
07.12.2019 15:00:00 9,5 8,1 - - 1,2
07.12.2019 14:00:00 9,9 7,0 - - 0,0
07.12.2019 13:00:00 9,8 6,8 - - 0,0
07.12.2019 12:00:00 9,2 6,9 - - 0,0
07.12.2019 11:00:00 9,1 6,9 - - 0,0
07.12.2019 10:00:00 8,6 6,9 - - 0,0
07.12.2019 09:00:00 8,4 6,2 5,7 7,0 0,0
07.12.2019 08:00:00 7,7 6,1 - - 0,0
07.12.2019 07:00:00 7,8 6,0 - - 0,0
07.12.2019 06:00:00 7,5 5,8 - - 0,0
07.12.2019 05:00:00 7,2 5,9 - - 0,2
07.12.2019 04:00:00 7,6 6,2 - - 0,0
07.12.2019 03:00:00 7,6 6,4 - - 0,0
07.12.2019 02:00:00 7,7 6,2 - - 0,0
07.12.2019 01:00:00 7,4 5,9 - - 0,0
07.12.2019 00:00:00 7,6 5,8 - - 0,0
06.12.2019 23:00:00 7,9 6,2 - - 0,0
06.12.2019 22:00:00 7,8 5,8 - - 0,0
06.12.2019 21:00:00 8,0 5,9 - - 0,0
06.12.2019 20:00:00 7,7 5,7 - - 0,0
06.12.2019 19:00:00 8,1 5,6 - - 0,0
06.12.2019 18:00:00 8,4 6,0 - - 0,0
06.12.2019 17:00:00 8,6 6,1 - - 0,0
06.12.2019 16:00:00 8,7 6,4 - - 0,0
06.12.2019 15:00:00 8,9 6,5 - - 0,0
06.12.2019 14:00:00 9,3 6,7 - - 0,0
06.12.2019 13:00:00 9,9 7,3 - - 0,0
06.12.2019 12:00:00 10,3 7,9 - - 0,0
06.12.2019 11:00:00 9,7 7,8 - - 0,0
06.12.2019 10:00:00 9,9 7,7 - - 0,2
06.12.2019 09:00:00 10,9 10,1 5,4 7,0 0,4
06.12.2019 08:00:00 10,8 10,0 - - 1,2
06.12.2019 07:00:00 11,5 9,3 - - 0,0
06.12.2019 06:00:00 11,9 9,7 - - 0,0
06.12.2019 05:00:00 11,9 9,6 - - 0,0
06.12.2019 04:00:00 11,6 9,4 - - 0,0
06.12.2019 03:00:00 11,7 9,6 - - 0,0
06.12.2019 02:00:00 11,7 9,5 - - 0,0
06.12.2019 01:00:00 11,5 9,7 - - 0,2
06.12.2019 00:00:00 11,9 9,8 - - 0,0
05.12.2019 23:00:00 12,0 9,7 - - 0,0
05.12.2019 22:00:00 12,2 9,7 - - 0,0
05.12.2019 21:00:00 12,5 9,9 - - 0,0
05.12.2019 20:00:00 12,6 10,5 - - 0,0
05.12.2019 19:00:00 12,4 10,8 - - 0,6
05.12.2019 18:00:00 12,1 10,7 - - 0,2
05.12.2019 17:00:00 10,5 9,5 - - 1,0
05.12.2019 16:00:00 10,6 8,0 - - 0,0
05.12.2019 15:00:00 9,8 7,1 - - 0,0
05.12.2019 14:00:00 8,9 6,4 - - 0,2
05.12.2019 13:00:00 9,0 6,1 - - 0,0
05.12.2019 12:00:00 8,8 5,5 - - 0,0
05.12.2019 11:00:00 8,6 4,5 - - 0,0

tt = Température de l'air
td = dewpoint
tt -20cm = Température de l'air -20cm
tt -100cm = Température de l'air -100cm
rr = Quantités de précipitations

stations d'obs. à proximité